sat.trackr.live / text

‹ back to catalog

METEOR-M2 2

NORAD 44387 · 2019-038A

PAYLOAD ACTIVE UNKNOWN

§ Identity

Operator
Country
CIS
Launch date
2019-07-05
Launch site
VOSTO
Launch vehicle
Mass (kg)
RCS (m²)

Purposes: earth_obs

External: N2YO · Heavens-Above · Gunter

§ Orbital elements

Epoch: 2026-09-20T05:12:07.796160Z

Period
101.10 min
Inclination
98.9256°
Eccentricity
0.0002318
Mean motion
14.24387750 rev/d
Perigee alt
808.9 km
Apogee alt
812.2 km
Semi-major
7,188.7 km
B*
1.1865e-4
RAAN
251.9500°
Arg perigee
92.4942°
Mean anomaly
267.6501°
Rev number
37,482

§ Raw data

METEOR-M2 21 44387U 19038A   26263.21675690  .00000228  00000+0  11865-3 0  99972 44387  98.9256 251.9500 0002318  92.4942 267.6501 14.24387750374825

JSON: /api/v1/satellites/44387 · /tle

For live sub-satellite position, see the globe view (requires WebGL).

§ Visibility from observer

Set your observer location to see the next 7 days of passes ≥ 10°. The values pass through the URL so the page stays shareable.

No JS? Fill the form by hand. The geolocation button needs JavaScript.

§ Radio — SatNOGS DB

ModeDescriptionDownlinkUplink
HRPT HRPT 1.700 GHz
FM Raw X-Band 8.320 GHz
FM Raw X-Band 8.128 GHz
FM S-Band TLM 3.405 GHz
BPSK SARSAT L-Band 1.545 GHz
LRPT LRPT S-E RHCP D 72 kbps (inactive) 137.900 MHz
LRPT LRPT S-E RHCP D 80 kbps (inactive) 137.100 MHz
LRPT LRPT S-E RHCP D 80 kbps (inactive) 137.913 MHz

8 transmitters · refreshed weekly from db.satnogs.org